Probability
0 0 0 0 0 0 0 0 0 0 0 0 0 0 0 0 0 0 0 0 0 0 0 0 0 1 0 1 2 2 2 2 2 1 2 3 4 4
0 0 0 0 0 0 0 0 0 0 0 0 0 0 0 0 0 0 0 0 0 0 0 0 0 1 0 0 1 1 1 1 1 0 1 1 2 3
0 0 0 0 0 0 0 0 0 0 0 0 0 0 0 0 0 0 0 0 0 0 0 0 0 0 0 0 0 0 0 0 0 0 0 0 1 2
0 0 0 0 0 0 0 0 0 0 0 0 0 0 0 0 0 0 0 0 0 0 0 0 0 0 0 0 0 0 0 0 0 0 0 0 0 1
0 0 0 0 0 0 0 0 0 0 0 0 0 0 0 0 0 0 0 0 0 0 0 0 0 0 0 0 0 0 0 0 0 0 0 0 0 0
0 0 0 0 0 0 0 0 0 0 0 0 0 0 0 0 0 0 0 0 0 0 0 0 0 0 0 0 0 0 0 0 0 0 0 0 0 0
0 0 0 0 0 0 0 0 0 0 0 0 0 0 0 0 0 0 0 0 0 0 1 1 0 0 0 0 0 0 0 0 0 0 0 0 0 0
0 0 0 0 0 0 0 0 0 0 0 0 0 0 0 0 0 0 0 0 0 1 2 2 1 0 0 0 0 0 0 0 0 0 0 0 0 0
0 0 0 0 0 0 0 0 0 0 0 0 0 0 0 0 0 0 0 0 0 1 3 3 2 1 0 0 0 0 0 0 0 0 0 0 0 0
0 0 0 0 0 0 0 0 0 0 0 0 0 0 0 0 0 0 0 0 0 1 2 2 2 1 0 0 0 0 0 0 0 0 0 0 0 0
0 0 0 0 0 0 0 0 0 0 0 0 0 0 0 0 0 0 0 0 0 1 1 1 1 0 0 0 0 0 0 0 0 0 0 0 0 0
0 0 0 0 0 0 0 0 0 0 0 0 0 0 0 0 0 0 0 0 0 0 0 0 0 0 0 0 0 0 0 0 0 0 0 0 0 0
0 0 0 0 0 0 0 0 0 0 0 0 0 0 0 0 0 0 0 0 0 0 0 0 0 0 0 0 0 0 0 1 1 0 0 0 0 0
0 0 0 0 0 0 0 0 0 0 0 0 0 0 0 0 0 0 0 0 0 0 0 0 0 0 0 0 0 0 1 2 2 1 0 0 0 0
0 0 0 0 0 0 0 0 0 0 0 0 0 0 0 0 0 0 0 0 0 0 0 0 0 0 0 0 0 0 1 2 3 2 1 0 0 0
0 0 0 0 0 0 0 0 0 0 0 0 0 0 0 0 0 0 0 0 0 0 0 0 0 0 0 0 0 0 1 1 2 2 1 0 0 0
0 0 0 0 0 0 0 0 0 0 0 0 0 0 0 0 0 0 0 0 0 0 0 0 0 0 0 0 0 0 0 0 1 1 0 0 0 0
0 0 0 0 0 0 0 0 0 0 0 0 0 0 0 0 0 0 0 0 0 0 0 0 0 0 0 0 0 0 0 0 0 0 0 0 0 0
0 0 0 0 0 0 0 0 0 0 0 0 0 0 0 0 0 0 0 0 0 0 0 0 0 0 0 0 0 0 0 0 0 0 0 0 0 0
0 0 0 0 0 0 0 0 0 0 0 0 0 0 0 0 0 0 0 0 0 0 0 0 0 0 0 0 0 0 0 0 0 0 0 0 0 0
0 0 0 0 0 0 0 0 0 0 0 0 0 0 0 0 0 0 0 0 0 0 0 0 0 0 0 0 0 0 0 0 0 0 0 0 0 0
0 0 0 0 0 0 0 0 0 0 0 0 0 0 0 0 0 0 0 0 0 0 0 0 0 0 0 0 0 0 0 0 0 0 0 0 0 0
0 0 0 0 0 0 0 0 0 0 0 0 0 0 0 0 0 0 0 0 0 0 0 0 0 0 0 0 0 0 0 0 0 0 0 0 0 0
Wind_Speed
3 3 2 2 1 1 1 1 1 1 2 3 2 2 2 2 2 2 2 4 4 3 3 3 2 3 3 2 3 4 5 6 6 6 7 8 8 9
2 3 3 2 2 1 1 1 1 2 2 2 2 3 3 3 3 2 2 4 4 3 3 3 3 3 3 3 3 3 4 5 6 6 6 7 7 7
4 3 4 3 2 2 1 1 1 2 3 3 2 2 2 3 3 2 2 2 2 3 3 4 4 4 4 3 3 4 4 4 5 5 5 6 6 7
4 4 4 4 4 3 2 2 2 2 2 4 3 2 3 2 2 3 3 2 2 3 3 4 4 4 4 3 3 4 4 5 5 6 6 6 6 6
3 3 4 4 4 3 3 3 2 2 2 3 3 2 2 2 2 2 2 2 2 2 3 3 3 4 4 4 4 4 4 5 6 6 6 6 6 6
3 3 3 3 4 4 3 3 3 2 2 2 3 3 2 2 1 2 2 2 2 2 2 2 2 3 4 5 5 5 5 6 6 6 6 6 6 6
4 4 4 6 6 4 3 3 2 2 2 3 3 3 3 2 2 2 3 2 2 2 2 2 2 2 3 4 5 6 6 6 7 8 7 7 6 6
4 5 5 6 7 8 8 7 5 3 3 3 3 4 5 4 3 3 2 2 3 2 1 2 1 3 3 3 5 6 7 7 7 7 7 7 6 6
4 4 5 6 7 4 7 9 7 8 7 5 5 6 5 5 4 4 4 4 5 3 2 3 2 3 3 4 6 8 8 8 7 7 7 7 7 6
4 4 5 6 6 6 5 6 6 6 7 5 6 7 6 5 6 6 6 5 4 3 3 4 3 3 3 3 6 8 8 8 8 8 7 7 6 6
4 5 5 5 10 10 6 6 7 7 8 9 10 10 11 10 7 3 3 3 4 4 3 3 3 3 3 3 4 7 8 9 9 8 8 7 7 5
4 5 8 9 12 12 6 5 7 8 6 7 8 8 7 8 9 6 5 4 4 4 4 4 3 2 2 2 3 4 5 6 8 8 8 8 7 5
4 4 5 12 14 14 11 6 10 10 6 6 6 6 5 5 5 5 5 5 6 6 4 4 3 3 3 2 2 3 4 3 4 5 7 8 8 7
5 5 6 13 15 15 10 11 14 12 4 4 5 5 5 5 5 5 6 6 7 8 6 6 4 5 4 4 3 2 3 3 4 4 4 5 6 6
5 10 12 14 13 10 11 14 11 5 4 5 6 6 5 5 5 4 5 5 6 7 6 7 6 5 5 5 5 4 3 3 5 5 5 5 4 4
5 8 12 12 8 8 10 8 5 5 5 6 6 6 5 4 5 4 4 4 5 6 5 7 8 8 6 6 6 5 5 5 5 5 4 4 3 4
6 4 4 5 5 5 5 5 5 4 5 5 5 6 5 5 5 4 4 4 5 6 5 4 4 4 5 5 6 6 6 5 5 6 5 4 4 5
7 4 5 5 6 6 6 6 5 5 6 6 6 6 6 6 6 4 4 5 6 6 6 4 3 2 2 3 6 7 6 5 5 6 5 5 5 4
5 5 6 6 6 6 6 6 6 6 6 6 6 6 6 6 5 5 5 6 6 6 6 5 5 5 6 6 4 7 7 6 6 5 6 5 5 5
4 6 6 7 7 7 7 7 7 6 6 6 7 7 6 6 6 6 6 6 6 6 6 5 6 7 8 7 4 3 7 8 7 7 5 3 1 1
6 6 7 7 7 7 7 7 7 7 7 7 6 7 6 6 6 6 6 8 7 6 7 6 6 7 3 2 2 2 2 5 7 7 7 5 4 3
7 7 7 7 7 7 7 7 7 7 7 7 7 6 6 6 7 8 7 6 6 6 6 4 3 3 4 6 6 5 3 2 3 4 6 7 7 7
7 7 7 7 7 7 7 8 9 8 7 7 7 6 6 6 6 7 7 7 6 6 6 4 3 3 4 5 6 5 6 6 4 4 1 1 4 5
Wind_Direction
355 359 356 331 325 279 228 199 187 286 300 296 308 319 319 309 307 303 294 286 279 266 249 234 227 222 218 224 233 227 222 212 206 207 214 214 211 209
353 1 353 335 336 329 291 240 212 205 256 277 280 298 307 306 309 304 294 293 286 275 256 231 207 202 205 207 213 220 217 209 206 205 208 210 209 209
358 358 343 332 337 333 323 290 248 211 245 278 277 297 300 299 309 306 294 283 280 273 258 238 214 203 203 206 210 213 205 198 204 206 205 207 206 204
342 345 337 338 335 326 322 306 279 244 232 270 292 300 291 284 291 296 301 287 270 270 254 241 221 208 204 206 207 210 208 203 205 208 209 211 208 203
326 328 322 331 324 317 312 306 293 291 259 257 276 278 283 293 300 297 293 297 281 267 254 242 224 211 204 205 206 208 209 210 208 206 206 208 209 209
316 312 311 308 298 304 311 308 303 301 294 276 278 284 275 278 264 274 289 284 285 291 282 251 229 218 214 211 210 209 208 207 205 203 204 206 208 208
317 309 303 307 311 310 312 305 305 292 289 285 281 286 278 269 258 250 259 277 276 261 265 258 242 239 234 225 218 213 209 209 209 207 205 206 205 205
305 307 307 308 314 320 315 308 298 288 277 266 269 270 268 259 258 250 242 256 268 242 223 261 232 238 237 227 221 215 211 207 208 208 204 203 203 203
290 296 305 312 318 307 308 312 304 294 281 263 255 257 261 256 249 253 242 235 241 233 208 250 233 239 241 237 226 219 212 207 206 208 204 200 198 199
283 278 281 291 295 298 297 299 290 288 281 273 253 253 257 254 239 245 245 252 263 247 204 235 235 237 240 237 231 219 210 206 204 204 202 197 193 194
291 287 285 282 294 303 298 295 296 292 286 283 280 275 273 273 263 248 239 238 260 252 213 216 229 236 240 240 234 217 207 202 200 201 199 193 188 185
300 295 297 298 302 305 292 282 288 288 290 294 293 289 281 274 262 235 224 233 248 250 218 200 212 202 244 246 229 216 207 203 197 194 191 187 181 176
298 298 295 305 306 303 297 274 275 286 279 275 279 282 277 266 255 238 226 224 234 245 216 191 205 202 214 237 243 220 204 195 192 193 189 187 183 178
290 290 291 303 306 306 299 286 288 292 278 274 276 277 275 271 264 250 241 240 242 245 225 200 212 205 203 217 229 218 208 199 189 190 187 181 183 184
286 294 302 306 308 306 300 299 297 285 268 267 268 268 263 264 267 263 255 252 257 255 236 220 214 211 207 212 211 200 199 204 194 188 184 185 185 178
301 300 306 307 299 292 300 302 288 268 266 261 266 269 269 269 265 254 254 253 259 264 244 228 218 208 218 217 205 206 198 193 187 188 183 188 188 188
301 302 305 306 303 298 295 292 285 280 274 263 264 269 269 270 268 254 245 245 244 253 255 237 223 217 218 209 210 208 199 196 190 181 178 189 200 196
309 297 294 292 290 288 291 292 285 275 270 266 263 261 262 264 268 261 244 243 249 251 249 232 199 203 238 259 221 207 199 196 187 182 178 184 202 203
298 284 284 284 284 283 282 280 280 278 271 265 263 260 259 261 261 259 253 249 251 252 249 222 201 202 221 238 238 207 196 186 176 182 187 188 197 198
272 275 278 279 280 281 280 278 277 279 273 267 263 256 252 257 258 255 254 253 253 256 252 224 212 211 219 224 217 213 201 186 179 180 175 158 146 136
274 273 273 274 276 276 277 276 274 275 273 269 265 257 251 253 254 252 253 254 252 251 248 238 231 217 209 169 187 207 211 204 186 172 163 155 158 166
275 276 275 273 274 274 276 275 274 273 274 270 265 259 253 252 251 251 251 251 249 248 251 247 225 201 201 204 210 202 188 163 154 149 159 166 167 180
274 275 275 275 273 274 276 274 272 271 269 269 264 257 254 255 252 248 251 251 248 248 247 239 224 216 220 208 204 196 179 165 150 143 150 188 187 182